Weather History for Crossville, TN

Change the Weather History Date:

Monday, April 23, 2012

  Actual Average Record
Temperature  
Mean Temperature 46 °F 58 °F  
Max Temperature 54 °F 69 °F 85 °F (1965)
Min Temperature 37 °F 47 °F 23 °F (1986)
Degree Days  
Heating Degree Days 19    
Month to date heating degree days 191  
Since 1 July heating degree days 3302  
Cooling Degree Days 0    
Month to date cooling degree days 20  
Year to date cooling degree days 42  
Moisture  
Dew Point 25 °F    
Average Humidity 48    
Maximum Humidity 70    
Minimum Humidity 26    
Precipitation  
Precipitation 0.00 in 0.17 in 1.65 in (1977)
Month to date precipitation 0.97 3.69  
Year to date precipitation 15.41 17.89  
Sea Level Pressure  
Sea Level Pressure 29.85 in    
Wind  
Wind Speed 11 mph (NW)    
Max Wind Speed 23 mph    
Max Gust Speed 33 mph    
Visibility 10 miles    
Events      
T = Trace of Precipitation, MM = Missing Value Source: NWS Daily Summary

Daily Weather History Graph

Daily Weather History Graph

Search for Another Location

Airport:

Trip Planner

Search our weather history database for the weather conditions in past years. The results will help you decide how hot, cold, wet, or windy it might be!

Date:

Astronomy

Apr. 23, 2012 Rise Set
Actual Time 5:56 AM CDT 7:21 PM CDT
Civil Twilight 5:29 AM CDT 7:48 PM CDT
Nautical Twilight 4:57 AM CDT 8:20 PM CDT
Astronomical Twilight 4:23 AM CDT 8:54 PM CDT
Moon 7:11 AM CDT (4/23) 9:45 PM CDT (4/23)
Length of Visible Light 14h 18m
Length of Day
13h 24m
Waxing Crescent, 5% of the Moon is Illuminated
Apr 23
Waxing Crescent
Apr 29
First Quarter
May 5
Full
May 12
Last Quarter
May 20
New

Hourly Weather History & Observations

Time (CDT) Temp. Windchill Dew Point Humidity Pressure Visibility Wind Dir Wind Speed Gust Speed Precip Events Conditions
12:53 AM 39.9 °F 35.1 °F 30.0 °F 68% 29.83 in 10.0 mi NW 6.9 mph - N/A   Clear
1:53 AM 39.0 °F 34.0 °F 28.9 °F 67% 29.82 in 10.0 mi NNW 6.9 mph - N/A   Clear
2:53 AM 37.0 °F 34.5 °F 28.0 °F 70% 29.81 in 10.0 mi NW 3.5 mph - N/A   Partly Cloudy
3:53 AM 37.9 °F 32.7 °F 28.9 °F 70% 29.81 in 10.0 mi NW 6.9 mph - N/A   Overcast
4:53 AM 37.9 °F 31.5 °F 28.9 °F 70% 29.81 in 10.0 mi NW 9.2 mph - N/A   Partly Cloudy
5:53 AM 37.9 °F 32.7 °F 28.0 °F 68% 29.82 in 10.0 mi NW 6.9 mph - N/A   Overcast
6:53 AM 37.0 °F 31.0 °F 28.9 °F 73% 29.83 in 10.0 mi NW 8.1 mph - N/A   Clear
7:53 AM 39.9 °F 31.4 °F 28.9 °F 65% 29.84 in 10.0 mi NW 16.1 mph 21.9 mph N/A   Clear
8:53 AM 41.0 °F 33.5 °F 28.0 °F 60% 29.86 in 10.0 mi NNW 13.8 mph 21.9 mph N/A   Partly Cloudy
9:53 AM 44.1 °F 37.4 °F 25.0 °F 47% 29.87 in 10.0 mi NW 13.8 mph 25.3 mph N/A   Mostly Cloudy
10:53 AM 46.0 °F 37.8 °F 25.0 °F 44% 29.87 in 10.0 mi NNW 23.0 mph 28.8 mph N/A   Mostly Cloudy
11:53 AM 48.9 °F - 25.0 °F 39% 29.86 in 10.0 mi NNW 17.3 mph 27.6 mph N/A   Partly Cloudy
12:53 PM 51.1 °F - 24.1 °F 35% 29.86 in 10.0 mi NNW 20.7 mph 29.9 mph N/A   Partly Cloudy
1:53 PM 52.0 °F - 21.0 °F 30% 29.85 in 10.0 mi North 17.3 mph 29.9 mph N/A   Clear
2:53 PM 53.1 °F - 21.9 °F 30% 29.85 in 10.0 mi NW 16.1 mph 25.3 mph N/A   Partly Cloudy
3:53 PM 53.1 °F - 19.9 °F 27% 29.84 in 10.0 mi NW 17.3 mph 29.9 mph N/A   Mostly Cloudy
4:53 PM 51.1 °F - 19.9 °F 29% 29.85 in 10.0 mi NW 16.1 mph 26.5 mph N/A   Mostly Cloudy
5:53 PM 51.1 °F - 21.0 °F 31% 29.86 in 10.0 mi NW 11.5 mph 19.6 mph N/A   Mostly Cloudy
6:53 PM 50.0 °F - 19.9 °F 31% 29.86 in 10.0 mi WNW 8.1 mph 17.3 mph N/A   Mostly Cloudy
7:53 PM 48.0 °F - 21.0 °F 34% 29.88 in 10.0 mi NW 8.1 mph 16.1 mph N/A   Scattered Clouds
8:53 PM 46.0 °F 43.1 °F 24.1 °F 42% 29.88 in 10.0 mi West 5.8 mph - N/A   Partly Cloudy
9:53 PM 44.1 °F 40.8 °F 26.1 °F 49% 29.88 in 10.0 mi West 5.8 mph - N/A   Clear
10:53 PM 42.1 °F 38.4 °F 27.0 °F 55% 29.88 in 10.0 mi West 5.8 mph - N/A   Scattered Clouds
11:53 PM 42.1 °F 37.7 °F 28.0 °F 58% 29.86 in 10.0 mi West 6.9 mph - N/A   Partly Cloudy